#timestamp,LO_Frequency,Hit 
1503730815.6,286047001.4,N
1503730835.5,286047002.6,N
1503730855.3,286047003.3,N
1503730875.1,286047000.0,N
1503730895.9,286046997.1,N
1503730915.7,286046993.8,N
1503730935.5,286046993.7,N
1503730955.6,286046995.3,N
1503730975.4,286046997.3,N
1503730995.2,286046999.1,N
1503731015.1,286046999.5,N
1503731016.0,286046999.5,N
1503731035.8,286046998.1,N
1503731055.6,286046998.5,N
1503731075.5,286047000.3,N
1503731095.3,286047001.2,N
1503731115.1,286047000.3,N
1503731135.9,286046999.6,N
1503731155.7,286046999.1,N
1503731175.5,286046997.2,N
1503731195.4,286046996.5,N
1503731215.2,286046999.0,N
1503731235.0,286046998.5,N
1503731235.9,286046998.5,N
1503731255.8,286047002.7,N
1503731275.4,286046998.5,N
1503731295.2,286046997.0,N
1503731315.0,286046997.5,N
1503731315.9,286046997.5,N
1503731335.8,286046999.3,N
1503731355.6,286046998.6,N
1503731375.4,286046999.3,N
1503731395.2,286046999.4,N
1503731415.1,286047000.9,N
1503731416.0,286047000.9,N
1503731435.8,286046997.4,N
1503731455.6,286046998.9,N
1503731475.5,286046995.4,P
1503731495.3,286046998.9,N
1503731515.2,286046998.8,N
1503731535.9,286046997.1,N
1503731555.7,286046999.5,N
1503731575.5,286046998.1,N
1503731595.4,286047000.7,N
1503731615.2,286047000.7,N
1503731635.0,286047002.2,N
1503731635.9,286047002.2,N
1503731655.8,286047002.4,N
1503731675.6,286046998.7,N
1503731695.4,286046998.1,N
1503731715.3,286046998.5,N
1503731735.1,286046996.9,N
1503731736.0,286046996.9,N
1503731755.8,286046997.0,N
1503731775.7,286046996.3,N
1503731795.5,286046995.3,N
1503731815.3,286046997.7,N
1503731835.2,286046998.7,N
1503731855.9,286046996.6,N
1503731875.7,286046996.9,N
1503731895.5,286046996.7,N
1503731915.4,286046998.3,N
1503731935.2,286046999.8,N
1503731955.0,286046998.2,N
1503731955.9,286046998.2,N
1503731975.8,286046996.5,N
1503731995.6,286046997.9,N
1503732015.4,286046997.7,N
1503732035.3,286046995.3,N
1503732055.1,286046996.3,N
1503732056.0,286046996.3,N
1503732075.8,286046992.1,P
1503732095.7,286046993.8,N
1503732115.5,286046995.7,N
1503732135.3,286046993.8,N
1503732155.2,286046995.1,N
1503732175.9,286046996.5,N
1503732195.7,286046997.0,N
1503732215.6,286046996.6,N
1503732235.4,286046997.2,N
1503732255.2,286046996.4,N
1503732275.1,286046993.8,P
1503732276.0,286046993.8,P
1503732295.8,286046999.0,N
1503732315.6,286046995.8,N
1503732335.5,286046995.9,N
1503732355.3,286046999.3,N
1503732375.1,286046995.4,N
1503732395.9,286046996.7,N
1503732415.7,286046999.4,N
1503732435.5,286046998.7,N
1503732455.4,286046998.8,N
1503732475.2,286046999.6,N
1503732495.0,286046999.0,N
1503732495.9,286046999.0,N
1503732515.7,286046997.2,N
1503732535.6,286046993.9,P
1503732555.4,286046996.1,N
1503732575.3,286046995.3,P
1503732595.1,286046992.5,P
1503732596.0,286046992.5,P
1503732615.8,286046995.1,P
1503732635.7,286046997.4,N
1503732655.5,286046999.2,N
1503732675.3,286047000.7,N
1503732695.2,286047000.7,N
1503732715.9,286046998.2,N
1503732735.7,286046996.5,N
1503732755.5,286047001.2,N
1503732775.4,286047001.6,N
1503732795.2,286046998.2,N
1503732815.0,286047000.4,N
1503732815.9,286047000.4,N
1503732835.8,286046998.9,N
1503732855.6,286046997.4,N
1503732875.4,286046997.9,N
1503732895.3,286046995.7,N
1503732915.1,286046995.2,N
1503732935.8,286046995.8,N
1503732955.7,286046993.9,N
1503732975.5,286046994.6,N
1503732995.3,286046993.4,N
1503733015.2,286046994.3,N
1503733035.9,286046994.3,N
1503733055.7,286046992.3,N
1503733075.6,286046990.5,P
1503733095.4,286046994.5,N
1503733115.2,286046994.4,N
1503733135.3,286046991.8,P
1503733155.1,286046997.0,N
1503733175.9,286046996.9,N
1503733195.7,286046999.4,N
1503733215.5,286046999.4,N
1503733235.4,286046996.8,N
1503733255.2,286046996.9,N
1503733275.0,286046997.7,N
1503733275.9,286046997.7,N
1503733295.8,286046997.3,N
1503733315.6,286046996.0,N
1503733335.4,286046993.9,P
1503733355.3,286046997.4,N
1503733375.1,286046997.4,N
1503733376.0,286046997.4,N
1503733395.8,286046993.8,P
1503733415.7,286046999.4,N
1503733435.5,286046999.3,N
1503733455.3,286046999.4,N
1503733475.2,286046999.5,N
1503733495.9,286046997.7,N
1503733515.7,286046997.4,N
1503733535.6,286046997.2,N
1503733555.4,286046998.3,N
1503733575.2,286046999.3,N
1503733595.1,286046999.4,N
1503733596.0,286046999.4,N
1503733615.8,286047002.2,N
1503733635.6,286047002.4,N
1503733655.4,286047000.5,N
1503733675.3,286047002.2,N
1503733695.1,286047000.1,N
1503733715.8,286047000.1,N
1503733735.7,286047001.3,N
1503733755.5,286047002.7,N
1503733775.3,286047002.6,N
1503733795.2,286047000.3,N
1503733815.9,286046997.0,N
1503733835.7,286046995.6,N
1503733855.6,286046995.9,N
1503733875.4,286046996.1,N
1503733895.2,286046996.3,N
1503733915.1,286046991.7,P
1503733916.0,286046991.7,N
1503733935.8,286046995.7,N
1503733955.6,286046996.2,N
1503733975.5,286046994.7,N
1503733995.3,286046992.6,N
1503734015.1,286046991.8,P
1503734035.9,286046998.9,N
1503734055.7,286046998.8,N
1503734075.5,286046997.9,N
1503734095.4,286046996.1,N
1503734115.2,286046996.7,N
1503734135.0,286046995.3,N
1503734135.9,286046995.3,N
1503734155.8,286046993.3,P
1503734175.6,286047000.0,N
1503734195.4,286046998.9,N
1503734215.3,286047001.6,N
1503734235.1,286046998.7,N
1503734236.0,286046998.7,N
1503734255.8,286046998.2,N
1503734275.7,286046997.1,N
1503734295.5,286046994.0,N
1503734315.3,286046994.8,N
1503734335.1,286046994.0,N
1503734355.9,286046993.1,N
1503734375.7,286046990.5,P
1503734395.6,286046997.9,N
